Weather History for KMLC - May, 2013

Change the Weather History Date:

Thursday, May 23, 2013

  Actual Average Record
Temperature  
Mean Temperature 68 °F -  
Max Temperature 78 °F 81 °F - (-1)
Min Temperature 59 °F 62 °F - (-1)
Cooling Degree Days 3    
Growing Degree Days 18 (Base 50)    
Moisture  
Dew Point 63 °F    
Average Humidity 88    
Maximum Humidity 100    
Minimum Humidity 66    
Precipitation  
Precipitation 0.08 in - - ()
Sea Level Pressure  
Sea Level Pressure 30.03 in    
Wind  
Wind Speed 4 mph (NE)    
Max Wind Speed 17 mph    
Max Gust Speed 21 mph    
Visibility 10 miles    
Events Rain , Thunderstorm    
Averages and records for this station are not official NWS values.
T = Trace of Precipitation, MM = Missing Value Source: NWS Daily Summary

Daily Weather History Graph

Daily Weather History Graph

Search for Another Location

Airport or City:

Trip Planner

Search our weather history database for the weather conditions in past years. The results will help you decide how hot, cold, wet, or windy it might be!

Date:

Astronomy

May. 23, 2013 Rise Set
Actual Time 6:14 AM CDT 8:25 PM CDT
Civil Twilight 5:45 AM CDT 8:54 PM CDT
Nautical Twilight 5:10 AM CDT 9:29 PM CDT
Astronomical Twilight 4:33 AM CDT 10:07 PM CDT
Moon 7:02 PM CDT (5/23) 4:56 AM CDT (5/23)
Length of Visible Light 15h 08m
Length of Day
14h 11m
Waxing Gibbous, 97% of the Moon is Illuminated
May 23
Waxing Gibbous
May 24
Full
May 31
Last Quarter
Jun 8
New
Jun 16
First Quarter

Hourly Weather History & Observations

Time (CDT) Temp. Dew Point Humidity Pressure Visibility Wind Dir Wind Speed Gust Speed Precip Events Conditions
12:53 AM 66.0 °F 62.1 °F 87% 29.91 in 10.0 mi ESE 5.8 mph - N/A   Clear
1:53 AM 62.1 °F 61.0 °F 96% 29.92 in 10.0 mi Calm Calm - N/A   Mostly Cloudy
2:53 AM 60.1 °F 59.0 °F 96% 29.94 in 10.0 mi Calm Calm - N/A   Clear
3:53 AM 59.0 °F 59.0 °F 100% 29.94 in 10.0 mi Calm Calm - N/A   Scattered Clouds
4:53 AM 61.0 °F 60.1 °F 97% 29.94 in 10.0 mi Calm Calm - N/A   Clear
5:53 AM 60.1 °F 60.1 °F 100% 29.96 in 10.0 mi Calm Calm - N/A   Partly Cloudy
6:53 AM 63.0 °F 61.0 °F 93% 29.95 in 10.0 mi ENE 4.6 mph - N/A   Partly Cloudy
7:53 AM 64.0 °F 62.1 °F 93% 29.99 in 10.0 mi Calm Calm - N/A   Clear
8:48 AM 64.4 °F 62.6 °F 94% 30.06 in 10.0 mi Variable 3.5 mph - N/A Thunderstorm Thunderstorm
8:53 AM 64.0 °F 62.1 °F 93% 30.05 in 10.0 mi Calm Calm - N/A Thunderstorm Thunderstorm
8:59 AM 64.4 °F 62.6 °F 94% 30.08 in 10.0 mi North 6.9 mph - 0.00 in Rain , Thunderstorm Light Rain
9:20 AM 64.4 °F 62.6 °F 94% 30.09 in 10.0 mi Calm Calm - 0.02 in Rain Light Rain
9:53 AM 64.0 °F 63.0 °F 96% 30.09 in 10.0 mi SSW 6.9 mph - 0.04 in   Mostly Cloudy
10:13 AM 64.4 °F 62.6 °F 94% 30.11 in 9.0 mi Calm Calm - 0.01 in Rain , Thunderstorm Light Thunderstorms and Rain
10:53 AM 66.0 °F 64.0 °F 93% 30.05 in 10.0 mi South 11.5 mph 20.7 mph 0.03 in Rain Light Rain
11:53 AM 71.1 °F 60.1 °F 68% 30.04 in 10.0 mi SW 9.2 mph 19.6 mph 0.00 in   Mostly Cloudy
12:53 PM 72.0 °F 63.0 °F 73% 30.05 in 10.0 mi NNE 6.9 mph - 0.01 in   Mostly Cloudy
1:53 PM 71.1 °F 66.9 °F 87% 30.06 in 10.0 mi North 9.2 mph - N/A   Clear
2:53 PM 70.0 °F 66.0 °F 87% 30.08 in 10.0 mi North 17.3 mph 20.7 mph N/A   Partly Cloudy
3:53 PM 73.9 °F 64.9 °F 73% 30.06 in 10.0 mi NE 10.4 mph 17.3 mph N/A   Clear
4:53 PM 77.0 °F 64.9 °F 66% 30.03 in 10.0 mi Variable 6.9 mph - N/A   Partly Cloudy
5:53 PM 77.0 °F 64.9 °F 66% 30.02 in 10.0 mi ESE 4.6 mph - N/A   Clear
6:53 PM 75.9 °F 68.0 °F 76% 30.02 in 10.0 mi Calm Calm - N/A   Clear
7:53 PM 73.0 °F 66.9 °F 81% 30.02 in 10.0 mi Calm Calm - N/A   Clear
8:53 PM 71.1 °F 66.9 °F 87% 30.04 in 10.0 mi NE 3.5 mph - N/A   Clear
9:53 PM 69.1 °F 66.0 °F 90% 30.05 in 10.0 mi Calm Calm - N/A   Clear
10:53 PM 66.0 °F 64.9 °F 96% 30.08 in 10.0 mi Calm Calm - N/A   Clear
11:53 PM 64.9 °F 63.0 °F 93% 30.09 in 10.0 mi NNE 9.2 mph - N/A   Clear